START_TIME,STEP,MOV.,EG07,t_acc.,EG08,t_acc.,EG09,t_acc.,EB05,t_acc.,EBP05,t_acc.
1989-08-25T06:00:23.640 ,6,0,312.,1.2,3.,1.2,0.,1.2,,0.0,,0.0
1989-08-25T06:00:24.840 ,6,0,320.,1.2,2.,1.2,0.,1.2,,0.0,,0.0
1989-08-25T06:00:26.040 ,6,0,312.,1.2,2.,1.2,0.,1.2,,0.0,,0.0
1989-08-25T06:00:27.240 ,6,0,280.,1.2,2.,1.2,0.,1.2,,0.0,,0.0
1989-08-25T06:00:28.440 ,6,0,320.,1.2,5.,1.2,0.,1.2,,0.0,,0.0
1989-08-25T06:00:29.640 ,6,0,312.,1.2,0.,1.2,0.,1.2,,0.0,,0.0
1989-08-25T06:00:30.840 ,6,0,312.,1.2,4.,1.2,0.,1.2,,0.0,,0.0
1989-08-25T06:00:32.040 ,6,0,312.,1.2,2.,1.2,0.,1.2,,0.0,,0.0
1989-08-25T06:00:33.240 ,6,0,288.,1.2,1.,1.2,0.,1.2,,0.0,,0.0
1989-08-25T06:00:34.440 ,6,0,272.,1.2,2.,1.2,0.,1.2,,0.0,,0.0
1989-08-25T06:00:35.640 ,6,0,288.,1.2,3.,1.2,0.,1.2,,0.0,,0.0
1989-08-25T06:00:36.840 ,6,0,280.,1.2,0.,1.2,0.,1.2,,0.0,,0.0
1989-08-25T06:00:38.040 ,6,0,312.,1.2,0.,1.2,0.,1.2,,0.0,,0.0
1989-08-25T06:00:39.240 ,6,0,320.,1.2,2.,1.2,0.,1.2,,0.0,,0.0
1989-08-25T06:00:40.440 ,6,0,304.,1.2,0.,1.2,0.,1.2,,0.0,,0.0
1989-08-25T06:00:41.640 ,6,0,288.,1.2,3.,1.2,0.,1.2,,0.0,,0.0
1989-08-25T06:00:42.840 ,6,0,336.,1.2,2.,1.2,0.,1.2,,0.0,,0.0
1989-08-25T06:00:44.040 ,6,0,304.,1.2,0.,1.2,0.,1.2,,0.0,,0.0
1989-08-25T06:00:45.240 ,6,0,328.,1.2,1.,1.2,0.,1.2,,0.0,,0.0
1989-08-25T06:00:46.440 ,6,0,296.,1.2,3.,1.2,0.,1.2,,0.0,,0.0
1989-08-25T06:00:47.640 ,6,0,288.,1.2,2.,1.2,0.,1.2,,0.0,,0.0
1989-08-25T06:00:48.840 ,6,0,296.,1.2,0.,1.2,0.,1.2,,0.0,,0.0
1989-08-25T06:00:50.040 ,6,0,304.,1.2,3.,1.2,0.,1.2,,0.0,,0.0
1989-08-25T06:00:51.240 ,6,0,312.,1.2,5.,1.2,0.,1.2,,0.0,,0.0
1989-08-25T06:00:52.440 ,6,0,336.,1.2,2.,1.2,0.,1.2,,0.0,,0.0
1989-08-25T06:00:53.640 ,6,0,304.,1.2,0.,1.2,0.,1.2,,0.0,,0.0
1989-08-25T06:00:54.840 ,6,0,304.,1.2,2.,1.2,0.,1.2,,0.0,,0.0
1989-08-25T06:00:56.040 ,6,0,312.,1.2,1.,1.2,0.,1.2,,0.0,,0.0
1989-08-25T06:00:57.240 ,6,0,304.,1.2,6.,1.2,0.,1.2,,0.0,,0.0
1989-08-25T06:00:58.440 ,6,0,304.,1.2,3.,1.2,0.,1.2,,0.0,,0.0
1989-08-25T06:00:59.640 ,6,0,288.,1.2,4.,1.2,0.,1.2,,0.0,,0.0
1989-08-25T06:01:00.840 ,6,0,320.,1.2,4.,1.2,0.,1.2,,0.0,,0.0
1989-08-25T06:01:02.040 ,6,0,304.,1.2,1.,1.2,0.,1.2,,0.0,,0.0
1989-08-25T06:01:03.240 ,6,0,288.,1.2,4.,1.2,0.,1.2,,0.0,,0.0
1989-08-25T06:01:04.440 ,6,0,344.,1.2,0.,1.2,0.,1.2,,0.0,,0.0
1989-08-25T06:01:05.640 ,6,0,304.,1.2,2.,1.2,0.,1.2,,0.0,,0.0
1989-08-25T06:01:06.840 ,6,0,304.,1.2,4.,1.2,1.,1.2,,0.0,,0.0
1989-08-25T06:01:08.040 ,6,0,336.,1.2,1.,1.2,0.,1.2,,0.0,,0.0
1989-08-25T06:01:09.240 ,6,0,304.,1.2,0.,1.2,0.,1.2,,0.0,,0.0
1989-08-25T06:01:10.440 ,6,0,312.,1.2,4.,1.2,0.,1.2,,0.0,,0.0
1989-08-25T06:01:11.640 ,6,0,296.,1.2,1.,1.2,0.,1.2,,0.0,,0.0
1989-08-25T06:01:12.840 ,6,0,320.,1.2,1.,1.2,0.,1.2,,0.0,,0.0
1989-08-25T06:01:14.040 ,6,0,328.,1.2,1.,1.2,0.,1.2,,0.0,,0.0
1989-08-25T06:01:15.240 ,6,0,344.,1.2,2.,1.2,0.,1.2,,0.0,,0.0
1989-08-25T06:01:16.440 ,6,0,320.,1.2,2.,1.2,0.,1.2,,0.0,,0.0
1989-08-25T06:01:17.640 ,6,0,336.,1.2,2.,1.2,0.,1.2,,0.0,,0.0
1989-08-25T06:01:18.840 ,6,0,304.,1.2,3.,1.2,0.,1.2,,0.0,,0.0
1989-08-25T06:01:20.040 ,6,0,296.,1.2,1.,1.2,0.,1.2,,0.0,,0.0
1989-08-25T06:01:21.240 ,6,0,312.,1.2,2.,1.2,0.,1.2,,0.0,,0.0
1989-08-25T06:01:22.440 ,6,0,288.,1.2,2.,1.2,0.,1.2,,0.0,,0.0
1989-08-25T06:01:23.640 ,6,0,344.,1.2,1.,1.2,0.,1.2,,0.0,,0.0
1989-08-25T06:01:24.840 ,6,0,304.,1.2,2.,1.2,0.,1.2,,0.0,,0.0
1989-08-25T06:01:26.040 ,6,0,280.,1.2,2.,1.2,0.,1.2,,0.0,,0.0
1989-08-25T06:01:27.240 ,6,0,304.,1.2,3.,1.2,0.,1.2,,0.0,,0.0
1989-08-25T06:01:28.440 ,6,0,312.,1.2,1.,1.2,0.,1.2,,0.0,,0.0
1989-08-25T06:01:29.640 ,6,0,328.,1.2,0.,1.2,0.,1.2,,0.0,,0.0
1989-08-25T06:01:30.840 ,6,0,296.,1.2,1.,1.2,0.,1.2,,0.0,,0.0
1989-08-25T06:01:32.040 ,6,0,320.,1.2,2.,1.2,0.,1.2,,0.0,,0.0
1989-08-25T06:01:33.240 ,6,0,296.,1.2,5.,1.2,1.,1.2,,0.0,,0.0
1989-08-25T06:01:34.440 ,6,0,336.,1.2,6.,1.2,0.,1.2,,0.0,,0.0
1989-08-25T06:00:53.040 ,0,0,,0,,0,,0,,0,,0
1989-08-25T06:00:54.240 ,0,0,,0,,0,,0,,0,,0
1989-08-25T06:00:55.440 ,0,0,,0,,0,,0,,0,,0
1989-08-25T06:00:56.640 ,0,0,,0,,0,,0,,0,,0
1989-08-25T06:00:57.840 ,0,0,,0,,0,,0,,0,,0
1989-08-25T06:00:59.040 ,0,0,304.,1.2,0.,1.2,0.,1.2,,0.0,,0.0
1989-08-25T06:01:00.240 ,0,0,304.,1.2,2.,1.2,0.,1.2,,0.0,,0.0
1989-08-25T06:01:01.440 ,0,0,312.,1.2,1.,1.2,0.,1.2,,0.0,,0.0
1989-08-25T06:01:02.640 ,0,0,304.,1.2,6.,1.2,0.,1.2,,0.0,,0.0
1989-08-25T06:01:03.840 ,0,0,304.,1.2,3.,1.2,0.,1.2,,0.0,,0.0
1989-08-25T06:01:05.040 ,0,0,288.,1.2,4.,1.2,0.,1.2,,0.0,,0.0
1989-08-25T06:01:06.240 ,0,0,320.,1.2,4.,1.2,0.,1.2,,0.0,,0.0
1989-08-25T06:01:07.440 ,0,0,304.,1.2,1.,1.2,0.,1.2,,0.0,,0.0
1989-08-25T06:01:08.640 ,0,0,288.,1.2,4.,1.2,0.,1.2,,0.0,,0.0
1989-08-25T06:01:09.840 ,0,0,344.,1.2,0.,1.2,0.,1.2,,0.0,,0.0
1989-08-25T06:01:11.040 ,0,0,304.,1.2,2.,1.2,0.,1.2,,0.0,,0.0
1989-08-25T06:01:12.240 ,0,0,304.,1.2,4.,1.2,1.,1.2,,0.0,,0.0
1989-08-25T06:01:13.440 ,0,0,336.,1.2,1.,1.2,0.,1.2,,0.0,,0.0
1989-08-25T06:01:14.640 ,0,0,304.,1.2,0.,1.2,0.,1.2,,0.0,,0.0
1989-08-25T06:01:15.840 ,0,0,312.,1.2,4.,1.2,0.,1.2,,0.0,,0.0
1989-08-25T06:01:11.640 ,6,0,296.,1.2,1.,1.2,0.,1.2,,0.0,,0.0
1989-08-25T06:01:12.840 ,6,0,320.,1.2,1.,1.2,0.,1.2,,0.0,,0.0
1989-08-25T06:01:14.040 ,6,0,328.,1.2,1.,1.2,0.,1.2,,0.0,,0.0
1989-08-25T06:01:15.240 ,6,0,344.,1.2,2.,1.2,0.,1.2,,0.0,,0.0
1989-08-25T06:01:16.440 ,6,0,320.,1.2,2.,1.2,0.,1.2,,0.0,,0.0
1989-08-25T06:01:17.640 ,6,0,336.,1.2,2.,1.2,0.,1.2,,0.0,,0.0
1989-08-25T06:01:18.840 ,6,0,304.,1.2,3.,1.2,0.,1.2,,0.0,,0.0
1989-08-25T06:01:20.040 ,6,0,296.,1.2,1.,1.2,0.,1.2,,0.0,,0.0
1989-08-25T06:01:21.240 ,6,0,312.,1.2,2.,1.2,0.,1.2,,0.0,,0.0
1989-08-25T06:01:22.440 ,6,0,288.,1.2,2.,1.2,0.,1.2,,0.0,,0.0
1989-08-25T06:01:23.640 ,6,0,344.,1.2,1.,1.2,0.,1.2,,0.0,,0.0
1989-08-25T06:01:24.840 ,6,0,304.,1.2,2.,1.2,0.,1.2,,0.0,,0.0
1989-08-25T06:01:26.040 ,6,0,280.,1.2,2.,1.2,0.,1.2,,0.0,,0.0
1989-08-25T06:01:27.240 ,6,0,304.,1.2,3.,1.2,0.,1.2,,0.0,,0.0
1989-08-25T06:01:28.440 ,6,0,312.,1.2,1.,1.2,0.,1.2,,0.0,,0.0
1989-08-25T06:01:29.640 ,6,0,328.,1.2,0.,1.2,0.,1.2,,0.0,,0.0
1989-08-25T06:01:30.840 ,6,0,296.,1.2,1.,1.2,0.,1.2,,0.0,,0.0
1989-08-25T06:01:32.040 ,6,0,320.,1.2,2.,1.2,0.,1.2,,0.0,,0.0
1989-08-25T06:01:33.240 ,6,0,296.,1.2,5.,1.2,1.,1.2,,0.0,,0.0
1989-08-25T06:01:34.440 ,6,0,336.,1.2,6.,1.2,0.,1.2,,0.0,,0.0
1989-08-25T06:01:35.640 ,5,0,296.,1.2,1.,1.2,0.,1.2,,0.0,,0.0
1989-08-25T06:01:36.840 ,5,0,15.,1.2,0.,1.2,0.,1.2,,0.0,,0.0
1989-08-25T06:01:38.040 ,5,0,4.,1.2,0.,1.2,0.,1.2,,0.0,,0.0
1989-08-25T06:01:39.240 ,5,0,4.,1.2,0.,1.2,0.,1.2,,0.0,,0.0
1989-08-25T06:01:40.440 ,5,0,2.,1.2,0.,1.2,0.,1.2,,0.0,,0.0
1989-08-25T06:01:41.640 ,5,0,5.,1.2,0.,1.2,0.,1.2,,0.0,,0.0
1989-08-25T06:01:42.840 ,5,0,2.,1.2,0.,1.2,0.,1.2,,0.0,,0.0
1989-08-25T06:01:44.040 ,5,0,9.,1.2,0.,1.2,0.,1.2,,0.0,,0.0
1989-08-25T06:01:45.240 ,5,0,3.,1.2,0.,1.2,0.,1.2,,0.0,,0.0
1989-08-25T06:01:46.440 ,5,0,6.,1.2,0.,1.2,0.,1.2,,0.0,,0.0
1989-08-25T06:01:47.640 ,5,0,34.,1.2,2.,1.2,0.,1.2,,0.0,,0.0
1989-08-25T06:01:48.840 ,5,0,320.,1.2,3.,1.2,0.,1.2,,0.0,,0.0
1989-08-25T06:01:50.040 ,5,0,312.,1.2,2.,1.2,0.,1.2,,0.0,,0.0
1989-08-25T06:01:51.240 ,5,0,312.,1.2,2.,1.2,0.,1.2,,0.0,,0.0
1989-08-25T06:01:52.440 ,5,0,288.,1.2,2.,1.2,0.,1.2,,0.0,,0.0
1989-08-25T06:01:53.640 ,5,0,304.,1.2,3.,1.2,0.,1.2,,0.0,,0.0
1989-08-25T06:01:54.840 ,5,0,176.,1.2,1.,1.2,0.,1.2,,0.0,,0.0
1989-08-25T06:01:56.040 ,5,0,184.,1.2,1.,1.2,0.,1.2,,0.0,,0.0
1989-08-25T06:01:57.240 ,5,0,176.,1.2,0.,1.2,0.,1.2,,0.0,,0.0
1989-08-25T06:01:58.440 ,5,0,176.,1.2,5.,1.2,1.,1.2,,0.0,,0.0
1989-08-25T06:01:59.640 ,0,0,192.,1.2,2.,1.2,0.,1.2,,0.0,,0.0
1989-08-25T06:02:00.840 ,0,0,61.,1.2,1.,1.2,0.,1.2,,0.0,,0.0
1989-08-25T06:02:02.040 ,0,0,72.,1.2,0.,1.2,0.,1.2,,0.0,,0.0
1989-08-25T06:02:03.240 ,0,0,64.,1.2,0.,1.2,0.,1.2,,0.0,,0.0
1989-08-25T06:02:04.440 ,0,0,64.,1.2,1.,1.2,0.,1.2,,0.0,,0.0
1989-08-25T06:02:05.640 ,0,0,76.,1.2,0.,1.2,0.,1.2,,0.0,,0.0
1989-08-25T06:02:06.840 ,0,0,228.,1.2,1.,1.2,0.,1.2,,0.0,,0.0
1989-08-25T06:02:08.040 ,0,0,256.,1.2,0.,1.2,0.,1.2,,0.0,,0.0
1989-08-25T06:02:09.240 ,0,0,212.,1.2,3.,1.2,0.,1.2,,0.0,,0.0
1989-08-25T06:02:10.440 ,0,0,244.,1.2,1.,1.2,0.,1.2,,0.0,,0.0
1989-08-25T06:02:11.640 ,0,0,204.,1.2,1.,1.2,0.,1.2,,0.0,,0.0
1989-08-25T06:02:12.840 ,0,0,288.,1.2,2.,1.2,0.,1.2,,0.0,,0.0
1989-08-25T06:02:14.040 ,0,0,312.,1.2,4.,1.2,0.,1.2,,0.0,,0.0
1989-08-25T06:02:15.240 ,0,0,296.,1.2,3.,1.2,0.,1.2,,0.0,,0.0
1989-08-25T06:02:16.440 ,0,0,304.,1.2,3.,1.2,0.,1.2,,0.0,,0.0
1989-08-25T06:02:17.640 ,0,0,304.,1.2,3.,1.2,0.,1.2,,0.0,,0.0
1989-08-25T06:02:18.840 ,0,0,216.,1.2,2.,1.2,0.,1.2,,0.0,,0.0
1989-08-25T06:02:20.040 ,0,0,,0,,0,,0,,0,,0
1989-08-25T06:02:21.240 ,0,0,,0,,0,,0,,0,,0
1989-08-25T06:02:22.440 ,0,0,,0,,0,,0,,0,,0
1989-08-25T06:02:26.030 ,0,0,,0,,0,,0,,0,,0
1989-08-25T06:02:27.230 ,0,0,,0,,0,,0,,0,,0
1989-08-25T06:02:28.430 ,0,0,57.,1.2,0.,1.2,0.,1.2,,0.0,,0.0
1989-08-25T06:02:29.630 ,0,0,72.,1.2,1.,1.2,0.,1.2,,0.0,,0.0
1989-08-25T06:02:30.830 ,0,0,68.,1.2,0.,1.2,0.,1.2,,0.0,,0.0
1989-08-25T06:02:32.030 ,0,0,72.,1.2,0.,1.2,0.,1.2,,0.0,,0.0
1989-08-25T06:02:33.230 ,0,0,76.,1.2,0.,1.2,0.,1.2,,0.0,,0.0
1989-08-25T06:02:34.430 ,0,0,76.,1.2,0.,1.2,0.,1.2,,0.0,,0.0
1989-08-25T06:02:35.630 ,0,0,62.,1.2,0.,1.2,0.,1.2,,0.0,,0.0
1989-08-25T06:02:36.830 ,0,0,74.,1.2,1.,1.2,0.,1.2,,0.0,,0.0
1989-08-25T06:02:38.030 ,0,0,68.,1.2,0.,1.2,0.,1.2,,0.0,,0.0
1989-08-25T06:02:39.230 ,0,0,70.,1.2,0.,1.2,0.,1.2,,0.0,,0.0
1989-08-25T06:02:40.430 ,0,0,72.,1.2,0.,1.2,0.,1.2,,0.0,,0.0
1989-08-25T06:02:41.630 ,0,0,76.,1.2,0.,1.2,0.,1.2,,0.0,,0.0
1989-08-25T06:02:42.830 ,0,0,66.,1.2,0.,1.2,0.,1.2,,0.0,,0.0
1989-08-25T06:02:44.030 ,0,0,60.,1.2,1.,1.2,0.,1.2,,0.0,,0.0
1989-08-25T06:02:45.230 ,0,0,66.,1.2,0.,1.2,0.,1.2,,0.0,,0.0
1989-08-25T06:02:46.430 ,0,0,74.,1.2,0.,1.2,0.,1.2,,0.0,,0.0
1989-08-25T06:02:47.630 ,0,0,66.,1.2,0.,1.2,0.,1.2,,0.0,,0.0
1989-08-25T06:02:48.830 ,0,0,74.,1.2,0.,1.2,0.,1.2,,0.0,,0.0
1989-08-25T06:02:47.630 ,0,0,68.,1.2,1.,1.2,0.,1.2,,0.0,,0.0
1989-08-25T06:02:48.830 ,0,0,63.,1.2,0.,1.2,0.,1.2,,0.0,,0.0
1989-08-25T06:02:50.030 ,0,0,68.,1.2,1.,1.2,0.,1.2,,0.0,,0.0
1989-08-25T06:02:51.230 ,0,0,64.,1.2,0.,1.2,0.,1.2,,0.0,,0.0
1989-08-25T06:02:52.430 ,0,0,68.,1.2,0.,1.2,0.,1.2,,0.0,,0.0
1989-08-25T06:02:53.630 ,0,0,70.,1.2,0.,1.2,0.,1.2,,0.0,,0.0
1989-08-25T06:02:54.830 ,0,0,72.,1.2,0.,1.2,0.,1.2,,0.0,,0.0
1989-08-25T06:02:56.030 ,0,0,72.,1.2,0.,1.2,0.,1.2,,0.0,,0.0
1989-08-25T06:02:57.230 ,0,0,61.,1.2,0.,1.2,0.,1.2,,0.0,,0.0
1989-08-25T06:02:58.430 ,0,0,64.,1.2,0.,1.2,0.,1.2,,0.0,,0.0
1989-08-25T06:02:59.630 ,0,0,80.,1.2,0.,1.2,0.,1.2,,0.0,,0.0
1989-08-25T06:03:00.830 ,0,0,53.,1.2,1.,1.2,0.,1.2,,0.0,,0.0
1989-08-25T06:03:02.030 ,0,0,86.,1.2,0.,1.2,0.,1.2,,0.0,,0.0
1989-08-25T06:03:03.230 ,0,0,76.,1.2,0.,1.2,0.,1.2,,0.0,,0.0
1989-08-25T06:03:04.430 ,0,0,66.,1.2,1.,1.2,0.,1.2,,0.0,,0.0
1989-08-25T06:03:05.630 ,0,0,74.,1.2,1.,1.2,0.,1.2,,0.0,,0.0
1989-08-25T06:03:06.830 ,0,0,61.,1.2,0.,1.2,0.,1.2,,0.0,,0.0
1989-08-25T06:03:08.030 ,0,0,70.,1.2,0.,1.2,0.,1.2,,0.0,,0.0
1989-08-25T06:03:09.230 ,0,0,88.,1.2,1.,1.2,0.,1.2,,0.0,,0.0
1989-08-25T06:03:10.430 ,0,0,64.,1.2,0.,1.2,0.,1.2,,0.0,,0.0
1989-08-25T06:03:11.630 ,0,0,74.,1.2,1.,1.2,0.,1.2,,0.0,,0.0
1989-08-25T06:03:12.830 ,0,0,55.,1.2,0.,1.2,0.,1.2,,0.0,,0.0
1989-08-25T06:03:14.030 ,0,0,78.,1.2,0.,1.2,0.,1.2,,0.0,,0.0
1989-08-25T06:03:15.230 ,0,0,58.,1.2,1.,1.2,0.,1.2,,0.0,,0.0
1989-08-25T06:03:16.430 ,0,0,72.,1.2,0.,1.2,0.,1.2,,0.0,,0.0
1989-08-25T06:03:17.630 ,0,0,68.,1.2,1.,1.2,0.,1.2,,0.0,,0.0
1989-08-25T06:03:18.830 ,0,0,78.,1.2,2.,1.2,0.,1.2,,0.0,,0.0
1989-08-25T06:03:20.030 ,0,0,74.,1.2,1.,1.2,0.,1.2,,0.0,,0.0
1989-08-25T06:03:21.230 ,0,0,92.,1.2,0.,1.2,0.,1.2,,0.0,,0.0
1989-08-25T06:03:22.430 ,0,0,72.,1.2,0.,1.2,0.,1.2,,0.0,,0.0
1989-08-25T06:03:23.630 ,0,0,82.,1.2,0.,1.2,0.,1.2,,0.0,,0.0
1989-08-25T06:03:24.830 ,0,0,96.,1.2,0.,1.2,0.,1.2,,0.0,,0.0
1989-08-25T06:03:26.030 ,0,0,76.,1.2,0.,1.2,0.,1.2,,0.0,,0.0
1989-08-25T06:03:27.230 ,0,0,78.,1.2,0.,1.2,0.,1.2,,0.0,,0.0
1989-08-25T06:03:28.430 ,0,0,74.,1.2,0.,1.2,0.,1.2,,0.0,,0.0
1989-08-25T06:03:29.630 ,0,0,76.,1.2,0.,1.2,0.,1.2,,0.0,,0.0
1989-08-25T06:03:30.830 ,0,0,72.,1.2,1.,1.2,0.,1.2,,0.0,,0.0
1989-08-25T06:03:32.030 ,0,0,82.,1.2,0.,1.2,0.,1.2,,0.0,,0.0
1989-08-25T06:03:33.230 ,0,0,76.,1.2,0.,1.2,0.,1.2,,0.0,,0.0
1989-08-25T06:03:34.430 ,0,0,76.,1.2,0.,1.2,0.,1.2,,0.0,,0.0
1989-08-25T06:03:35.630 ,0,0,66.,1.2,0.,1.2,0.,1.2,,0.0,,0.0
1989-08-25T06:03:36.830 ,0,0,72.,1.2,0.,1.2,0.,1.2,,0.0,,0.0
1989-08-25T06:03:38.030 ,0,0,80.,1.2,0.,1.2,0.,1.2,,0.0,,0.0
1989-08-25T06:03:39.230 ,0,0,76.,1.2,0.,1.2,0.,1.2,,0.0,,0.0
1989-08-25T06:03:40.430 ,0,0,66.,1.2,0.,1.2,0.,1.2,,0.0,,0.0
1989-08-25T06:03:41.630 ,0,0,66.,1.2,0.,1.2,0.,1.2,,0.0,,0.0
1989-08-25T06:03:42.830 ,0,0,78.,1.2,3.,1.2,0.,1.2,,0.0,,0.0
1989-08-25T06:03:44.030 ,0,0,58.,1.2,1.,1.2,0.,1.2,,0.0,,0.0
1989-08-25T06:03:45.230 ,0,0,63.,1.2,1.,1.2,0.,1.2,,0.0,,0.0
1989-08-25T06:03:46.430 ,0,0,66.,1.2,1.,1.2,0.,1.2,,0.0,,0.0
1989-08-25T06:03:47.630 ,0,0,84.,1.2,0.,1.2,0.,1.2,,0.0,,0.0
1989-08-25T06:03:48.830 ,0,0,74.,1.2,0.,1.2,0.,1.2,,0.0,,0.0
1989-08-25T06:03:50.030 ,0,0,76.,1.2,1.,1.2,0.,1.2,,0.0,,0.0
1989-08-25T06:03:51.230 ,0,0,68.,1.2,1.,1.2,0.,1.2,,0.0,,0.0
1989-08-25T06:03:52.430 ,0,0,80.,1.2,2.,1.2,0.,1.2,,0.0,,0.0
1989-08-25T06:03:53.630 ,0,0,78.,1.2,1.,1.2,1.,1.2,,0.0,,0.0
1989-08-25T06:03:54.830 ,0,0,66.,1.2,0.,1.2,0.,1.2,,0.0,,0.0
1989-08-25T06:03:56.030 ,0,0,76.,1.2,0.,1.2,0.,1.2,,0.0,,0.0
1989-08-25T06:03:57.230 ,0,0,68.,1.2,0.,1.2,0.,1.2,,0.0,,0.0
1989-08-25T06:03:58.430 ,0,0,,0,,0,,0,,0,,0
1989-08-25T06:03:17.630 ,0,0,,0,,0,,0,,0,,0
1989-08-25T06:03:18.830 ,0,0,,0,,0,,0,,0,,0
1989-08-25T06:03:20.030 ,0,0,,0,,0,,0,,0,,0
1989-08-25T06:03:21.230 ,0,0,,0,,0,,0,,0,,0
1989-08-25T06:03:22.430 ,0,0,,0,,0,,0,,0,,0
1989-08-25T06:03:23.630 ,0,0,68.,1.2,1.,1.2,0.,1.2,,0.0,,0.0
1989-08-25T06:03:24.830 ,0,0,78.,1.2,2.,1.2,0.,1.2,,0.0,,0.0
1989-08-25T06:03:26.030 ,0,0,74.,1.2,1.,1.2,0.,1.2,,0.0,,0.0
1989-08-25T06:03:27.230 ,0,0,92.,1.2,0.,1.2,0.,1.2,,0.0,,0.0
1989-08-25T06:03:28.430 ,0,0,72.,1.2,0.,1.2,0.,1.2,,0.0,,0.0
1989-08-25T06:03:29.630 ,0,0,82.,1.2,0.,1.2,0.,1.2,,0.0,,0.0
1989-08-25T06:03:30.830 ,0,0,96.,1.2,0.,1.2,0.,1.2,,0.0,,0.0
1989-08-25T06:03:32.030 ,0,0,76.,1.2,0.,1.2,0.,1.2,,0.0,,0.0
1989-08-25T06:03:33.230 ,0,0,78.,1.2,0.,1.2,0.,1.2,,0.0,,0.0
1989-08-25T06:03:34.430 ,0,0,74.,1.2,0.,1.2,0.,1.2,,0.0,,0.0
1989-08-25T06:03:35.630 ,0,0,76.,1.2,0.,1.2,0.,1.2,,0.0,,0.0
1989-08-25T06:03:36.830 ,0,0,72.,1.2,1.,1.2,0.,1.2,,0.0,,0.0
1989-08-25T06:03:38.030 ,0,0,82.,1.2,0.,1.2,0.,1.2,,0.0,,0.0
1989-08-25T06:03:39.230 ,0,0,76.,1.2,0.,1.2,0.,1.2,,0.0,,0.0
1989-08-25T06:03:40.430 ,0,0,76.,1.2,0.,1.2,0.,1.2,,0.0,,0.0
1989-08-25T06:03:35.630 ,0,0,66.,1.2,0.,1.2,0.,1.2,,0.0,,0.0
1989-08-25T06:03:36.830 ,0,0,72.,1.2,0.,1.2,0.,1.2,,0.0,,0.0
1989-08-25T06:03:38.030 ,0,0,80.,1.2,0.,1.2,0.,1.2,,0.0,,0.0
1989-08-25T06:03:39.230 ,0,0,76.,1.2,0.,1.2,0.,1.2,,0.0,,0.0
1989-08-25T06:03:40.430 ,0,0,66.,1.2,0.,1.2,0.,1.2,,0.0,,0.0
1989-08-25T06:03:41.630 ,0,0,66.,1.2,0.,1.2,0.,1.2,,0.0,,0.0
1989-08-25T06:03:42.830 ,0,0,78.,1.2,3.,1.2,0.,1.2,,0.0,,0.0
1989-08-25T06:03:44.030 ,0,0,58.,1.2,1.,1.2,0.,1.2,,0.0,,0.0
1989-08-25T06:03:45.230 ,0,0,63.,1.2,1.,1.2,0.,1.2,,0.0,,0.0
1989-08-25T06:03:46.430 ,0,0,66.,1.2,1.,1.2,0.,1.2,,0.0,,0.0
1989-08-25T06:03:47.630 ,0,0,84.,1.2,0.,1.2,0.,1.2,,0.0,,0.0
1989-08-25T06:03:48.830 ,0,0,74.,1.2,0.,1.2,0.,1.2,,0.0,,0.0
1989-08-25T06:03:50.030 ,0,0,76.,1.2,1.,1.2,0.,1.2,,0.0,,0.0
1989-08-25T06:03:51.230 ,0,0,68.,1.2,1.,1.2,0.,1.2,,0.0,,0.0
1989-08-25T06:03:52.430 ,0,0,80.,1.2,2.,1.2,0.,1.2,,0.0,,0.0
1989-08-25T06:03:53.630 ,0,0,78.,1.2,1.,1.2,1.,1.2,,0.0,,0.0
1989-08-25T06:03:54.830 ,0,0,66.,1.2,0.,1.2,0.,1.2,,0.0,,0.0
1989-08-25T06:03:56.030 ,0,0,76.,1.2,0.,1.2,0.,1.2,,0.0,,0.0
1989-08-25T06:03:57.230 ,0,0,68.,1.2,0.,1.2,0.,1.2,,0.0,,0.0
1989-08-25T06:03:58.430 ,0,0,,0,,0,,0,,0,,0
1989-08-25T06:04:02.030 ,0,0,,0,,0,,0,,0,,0
1989-08-25T06:04:03.230 ,0,0,,0,,0,,0,,0,,0
1989-08-25T06:04:04.430 ,0,0,82.,1.2,1.,1.2,0.,1.2,,0.0,,0.0
1989-08-25T06:04:05.630 ,0,0,80.,1.2,1.,1.2,0.,1.2,,0.0,,0.0
1989-08-25T06:04:06.830 ,0,0,72.,1.2,0.,1.2,0.,1.2,,0.0,,0.0
1989-08-25T06:04:08.030 ,0,0,70.,1.2,0.,1.2,0.,1.2,,0.0,,0.0
1989-08-25T06:04:09.230 ,0,0,74.,1.2,0.,1.2,0.,1.2,,0.0,,0.0
1989-08-25T06:04:10.430 ,0,0,78.,1.2,0.,1.2,0.,1.2,,0.0,,0.0
1989-08-25T06:04:11.630 ,0,0,63.,1.2,0.,1.2,0.,1.2,,0.0,,0.0
1989-08-25T06:04:12.830 ,0,0,82.,1.2,1.,1.2,0.,1.2,,0.0,,0.0
1989-08-25T06:04:14.030 ,0,0,70.,1.2,0.,1.2,0.,1.2,,0.0,,0.0
1989-08-25T06:04:15.230 ,0,0,68.,1.2,0.,1.2,0.,1.2,,0.0,,0.0
1989-08-25T06:04:16.430 ,0,0,84.,1.2,0.,1.2,0.,1.2,,0.0,,0.0
1989-08-25T06:04:17.630 ,0,0,76.,1.2,0.,1.2,0.,1.2,,0.0,,0.0
1989-08-25T06:04:18.830 ,0,0,84.,1.2,0.,1.2,0.,1.2,,0.0,,0.0
1989-08-25T06:04:20.030 ,0,0,78.,1.2,0.,1.2,0.,1.2,,0.0,,0.0
1989-08-25T06:04:21.230 ,0,0,76.,1.2,0.,1.2,0.,1.2,,0.0,,0.0
1989-08-25T06:04:22.430 ,0,0,74.,1.2,2.,1.2,0.,1.2,,0.0,,0.0
1989-08-25T06:04:23.630 ,0,0,76.,1.2,0.,1.2,0.,1.2,,0.0,,0.0
1989-08-25T06:04:24.830 ,0,0,80.,1.2,0.,1.2,0.,1.2,,0.0,,0.0
1989-08-25T06:04:23.630 ,0,0,76.,1.2,0.,1.2,0.,1.2,,0.0,,0.0
1989-08-25T06:04:24.830 ,0,0,66.,1.2,0.,1.2,0.,1.2,,0.0,,0.0
1989-08-25T06:04:26.030 ,0,0,74.,1.2,1.,1.2,0.,1.2,,0.0,,0.0
1989-08-25T06:04:27.230 ,0,0,70.,1.2,1.,1.2,0.,1.2,,0.0,,0.0
1989-08-25T06:04:28.430 ,0,0,66.,1.2,1.,1.2,0.,1.2,,0.0,,0.0
1989-08-25T06:04:29.630 ,0,0,76.,1.2,0.,1.2,0.,1.2,,0.0,,0.0
1989-08-25T06:04:30.830 ,0,0,56.,1.2,1.,1.2,0.,1.2,,0.0,,0.0
1989-08-25T06:04:32.030 ,0,0,62.,1.2,0.,1.2,0.,1.2,,0.0,,0.0
1989-08-25T06:04:33.230 ,0,0,80.,1.2,1.,1.2,0.,1.2,,0.0,,0.0
1989-08-25T06:04:34.430 ,0,0,88.,1.2,0.,1.2,0.,1.2,,0.0,,0.0
1989-08-25T06:04:35.630 ,0,0,62.,1.2,1.,1.2,0.,1.2,,0.0,,0.0
1989-08-25T06:04:36.830 ,0,0,88.,1.2,2.,1.2,0.,1.2,,0.0,,0.0
1989-08-25T06:04:38.030 ,0,0,76.,1.2,0.,1.2,0.,1.2,,0.0,,0.0
1989-08-25T06:04:39.230 ,0,0,64.,1.2,0.,1.2,0.,1.2,,0.0,,0.0
1989-08-25T06:04:40.430 ,0,0,74.,1.2,0.,1.2,0.,1.2,,0.0,,0.0
1989-08-25T06:04:41.630 ,0,0,74.,1.2,1.,1.2,0.,1.2,,0.0,,0.0
1989-08-25T06:04:42.830 ,0,0,76.,1.2,0.,1.2,0.,1.2,,0.0,,0.0
1989-08-25T06:04:44.030 ,0,0,72.,1.2,0.,1.2,0.,1.2,,0.0,,0.0
1989-08-25T06:04:45.230 ,0,0,74.,1.2,1.,1.2,0.,1.2,,0.0,,0.0
1989-08-25T06:04:46.430 ,0,0,80.,1.2,0.,1.2,0.,1.2,,0.0,,0.0
1989-08-25T06:04:47.630 ,0,0,68.,1.2,1.,1.2,0.,1.2,,0.0,,0.0
1989-08-25T06:04:48.830 ,0,0,76.,1.2,0.,1.2,0.,1.2,,0.0,,0.0
1989-08-25T06:04:50.030 ,0,0,84.,1.2,1.,1.2,0.,1.2,,0.0,,0.0
1989-08-25T06:04:51.230 ,0,0,74.,1.2,1.,1.2,0.,1.2,,0.0,,0.0
1989-08-25T06:04:52.430 ,0,0,72.,1.2,1.,1.2,1.,1.2,,0.0,,0.0
1989-08-25T06:04:53.630 ,0,0,94.,1.2,0.,1.2,0.,1.2,,0.0,,0.0
1989-08-25T06:04:54.830 ,0,0,78.,1.2,0.,1.2,0.,1.2,,0.0,,0.0
1989-08-25T06:04:56.030 ,0,0,66.,1.2,1.,1.2,0.,1.2,,0.0,,0.0
1989-08-25T06:04:57.230 ,0,0,72.,1.2,0.,1.2,0.,1.2,,0.0,,0.0
1989-08-25T06:04:58.430 ,0,0,70.,1.2,0.,1.2,0.,1.2,,0.0,,0.0
1989-08-25T06:04:59.630 ,0,0,66.,1.2,0.,1.2,0.,1.2,,0.0,,0.0
1989-08-25T06:05:00.830 ,0,0,78.,1.2,0.,1.2,0.,1.2,,0.0,,0.0
1989-08-25T06:05:02.030 ,0,0,80.,1.2,1.,1.2,0.,1.2,,0.0,,0.0
1989-08-25T06:05:03.230 ,0,0,76.,1.2,1.,1.2,0.,1.2,,0.0,,0.0
1989-08-25T06:05:04.430 ,0,0,74.,1.2,0.,1.2,0.,1.2,,0.0,,0.0
1989-08-25T06:05:05.630 ,0,0,64.,1.2,1.,1.2,0.,1.2,,0.0,,0.0
1989-08-25T06:05:06.830 ,0,0,92.,1.2,1.,1.2,0.,1.2,,0.0,,0.0
1989-08-25T06:05:08.030 ,0,0,68.,1.2,0.,1.2,0.,1.2,,0.0,,0.0
1989-08-25T06:05:09.230 ,0,0,78.,1.2,2.,1.2,1.,1.2,,0.0,,0.0
1989-08-25T06:05:10.430 ,0,0,72.,1.2,0.,1.2,0.,1.2,,0.0,,0.0
1989-08-25T06:05:11.630 ,0,0,70.,1.2,2.,1.2,0.,1.2,,0.0,,0.0
1989-08-25T06:05:12.830 ,0,0,82.,1.2,0.,1.2,0.,1.2,,0.0,,0.0
1989-08-25T06:05:14.030 ,0,0,90.,1.2,0.,1.2,0.,1.2,,0.0,,0.0
1989-08-25T06:05:15.230 ,0,0,86.,1.2,2.,1.2,0.,1.2,,0.0,,0.0
1989-08-25T06:05:16.430 ,0,0,82.,1.2,0.,1.2,0.,1.2,,0.0,,0.0
1989-08-25T06:05:17.630 ,0,0,66.,1.2,1.,1.2,1.,1.2,,0.0,,0.0
1989-08-25T06:05:18.830 ,0,0,82.,1.2,1.,1.2,0.,1.2,,0.0,,0.0
1989-08-25T06:05:20.030 ,0,0,68.,1.2,0.,1.2,0.,1.2,,0.0,,0.0
1989-08-25T06:05:21.230 ,0,0,76.,1.2,0.,1.2,0.,1.2,,0.0,,0.0
1989-08-25T06:05:22.430 ,0,0,80.,1.2,1.,1.2,0.,1.2,,0.0,,0.0
1989-08-25T06:05:23.630 ,0,0,56.,1.2,0.,1.2,0.,1.2,,0.0,,0.0
1989-08-25T06:05:24.830 ,0,0,76.,1.2,0.,1.2,0.,1.2,,0.0,,0.0
1989-08-25T06:05:26.030 ,0,0,80.,1.2,0.,1.2,0.,1.2,,0.0,,0.0
1989-08-25T06:05:27.230 ,0,0,90.,1.2,1.,1.2,0.,1.2,,0.0,,0.0
1989-08-25T06:05:28.430 ,0,0,,0,,0,,0,,0,,0
1989-08-25T06:05:29.630 ,0,0,,0,,0,,0,,0,,0
1989-08-25T06:05:30.830 ,0,0,76.,1.2,1.,1.2,0.,1.2,,0.0,,0.0
1989-08-25T06:05:32.030 ,0,0,60.,1.2,1.,1.2,0.,1.2,,0.0,,0.0
1989-08-25T06:05:33.230 ,0,0,78.,1.2,2.,1.2,1.,1.2,,0.0,,0.0
1989-08-25T06:05:34.430 ,0,0,,0,,0,,0,,0,,0
1989-08-25T06:04:53.630 ,0,0,,0,,0,,0,,0,,0
1989-08-25T06:04:54.830 ,0,0,,0,,0,,0,,0,,0
1989-08-25T06:04:56.030 ,0,0,,0,,0,,0,,0,,0
1989-08-25T06:04:57.230 ,0,0,,0,,0,,0,,0,,0
1989-08-25T06:04:58.430 ,0,0,,0,,0,,0,,0,,0
1989-08-25T06:04:59.630 ,0,0,94.,1.2,0.,1.2,0.,1.2,,0.0,,0.0
1989-08-25T06:05:00.830 ,0,0,78.,1.2,0.,1.2,0.,1.2,,0.0,,0.0
1989-08-25T06:05:02.030 ,0,0,66.,1.2,1.,1.2,0.,1.2,,0.0,,0.0
1989-08-25T06:05:03.230 ,0,0,72.,1.2,0.,1.2,0.,1.2,,0.0,,0.0
1989-08-25T06:05:04.430 ,0,0,70.,1.2,0.,1.2,0.,1.2,,0.0,,0.0
1989-08-25T06:05:05.630 ,0,0,66.,1.2,0.,1.2,0.,1.2,,0.0,,0.0
1989-08-25T06:05:06.830 ,0,0,78.,1.2,0.,1.2,0.,1.2,,0.0,,0.0
1989-08-25T06:05:08.030 ,0,0,80.,1.2,1.,1.2,0.,1.2,,0.0,,0.0
1989-08-25T06:05:09.230 ,0,0,76.,1.2,1.,1.2,0.,1.2,,0.0,,0.0
1989-08-25T06:05:10.430 ,0,0,74.,1.2,0.,1.2,0.,1.2,,0.0,,0.0
1989-08-25T06:05:11.630 ,0,0,64.,1.2,1.,1.2,0.,1.2,,0.0,,0.0
1989-08-25T06:05:12.830 ,0,0,92.,1.2,1.,1.2,0.,1.2,,0.0,,0.0
1989-08-25T06:05:14.030 ,0,0,68.,1.2,0.,1.2,0.,1.2,,0.0,,0.0
1989-08-25T06:05:15.230 ,0,0,78.,1.2,2.,1.2,1.,1.2,,0.0,,0.0
1989-08-25T06:05:16.430 ,0,0,72.,1.2,0.,1.2,0.,1.2,,0.0,,0.0
1989-08-25T06:05:11.630 ,0,0,70.,1.2,2.,1.2,0.,1.2,,0.0,,0.0
1989-08-25T06:05:12.830 ,0,0,82.,1.2,0.,1.2,0.,1.2,,0.0,,0.0
1989-08-25T06:05:14.030 ,0,0,90.,1.2,0.,1.2,0.,1.2,,0.0,,0.0
1989-08-25T06:05:15.230 ,0,0,86.,1.2,2.,1.2,0.,1.2,,0.0,,0.0
1989-08-25T06:05:16.430 ,0,0,82.,1.2,0.,1.2,0.,1.2,,0.0,,0.0
1989-08-25T06:05:17.630 ,0,0,66.,1.2,1.,1.2,1.,1.2,,0.0,,0.0
1989-08-25T06:05:18.830 ,0,0,82.,1.2,1.,1.2,0.,1.2,,0.0,,0.0
1989-08-25T06:05:20.030 ,0,0,68.,1.2,0.,1.2,0.,1.2,,0.0,,0.0
1989-08-25T06:05:21.230 ,0,0,76.,1.2,0.,1.2,0.,1.2,,0.0,,0.0
1989-08-25T06:05:22.430 ,0,0,80.,1.2,1.,1.2,0.,1.2,,0.0,,0.0
1989-08-25T06:05:23.630 ,0,0,56.,1.2,0.,1.2,0.,1.2,,0.0,,0.0
1989-08-25T06:05:24.830 ,0,0,76.,1.2,0.,1.2,0.,1.2,,0.0,,0.0
1989-08-25T06:05:26.030 ,0,0,80.,1.2,0.,1.2,0.,1.2,,0.0,,0.0
1989-08-25T06:05:27.230 ,0,0,90.,1.2,1.,1.2,0.,1.2,,0.0,,0.0
1989-08-25T06:05:28.430 ,0,0,59.,1.2,0.,1.2,0.,1.2,,0.0,,0.0
1989-08-25T06:05:29.630 ,0,0,76.,1.2,2.,1.2,0.,1.2,,0.0,,0.0
1989-08-25T06:05:30.830 ,0,0,76.,1.2,1.,1.2,0.,1.2,,0.0,,0.0
1989-08-25T06:05:32.030 ,0,0,60.,1.2,1.,1.2,0.,1.2,,0.0,,0.0
1989-08-25T06:05:33.230 ,0,0,78.,1.2,2.,1.2,1.,1.2,,0.0,,0.0
1989-08-25T06:05:34.430 ,0,0,,0,,0,,0,,0,,0
1989-08-25T06:05:38.630 ,0,0,,0,,0,,0,,0,,0
1989-08-25T06:05:39.830 ,0,0,,0,,0,,0,,0,,0
1989-08-25T06:05:41.030 ,0,0,,0,,0,,0,,0,,0
1989-08-25T06:05:42.230 ,0,0,76.,1.2,0.,1.2,0.,1.2,,0.0,,0.0
1989-08-25T06:05:43.430 ,0,0,70.,1.2,1.,1.2,0.,1.2,,0.0,,0.0
1989-08-25T06:05:44.630 ,0,0,86.,1.2,2.,1.2,0.,1.2,,0.0,,0.0
1989-08-25T06:05:45.830 ,0,0,78.,1.2,0.,1.2,0.,1.2,,0.0,,0.0
1989-08-25T06:05:47.030 ,0,0,78.,1.2,0.,1.2,0.,1.2,,0.0,,0.0
1989-08-25T06:05:48.230 ,0,0,82.,1.2,0.,1.2,0.,1.2,,0.0,,0.0
1989-08-25T06:05:49.430 ,0,0,68.,1.2,1.,1.2,0.,1.2,,0.0,,0.0
1989-08-25T06:05:50.630 ,0,0,64.,1.2,0.,1.2,0.,1.2,,0.0,,0.0
1989-08-25T06:05:51.830 ,0,0,88.,1.2,0.,1.2,0.,1.2,,0.0,,0.0